When you browse on this site, cookies collect data to enhance your experience and personalize the content and advertising you see.
Visit our Privacy Policy to learn more. By continuing to use the site, you agree to this use of cookies and data.
  • In Spain
  • List of Countries
  • For 7 days
  • Water Temperature
  • Satellite Maps
  • Weather Map
  • Weather Widgets
  • user-avatar
    Login

    Hourly Weather Vortihovo

    Today, 23 May, Thursday

    Time Temperature Precipitation Wind Pressure Humidity
    00:00 +14°C° 0 mm 0 mps 737 mmHg 87%
    01:00 +15°C° 0 mm 1 mps 737 mmHg 87%
    02:00 +14°C° 0 mm 1 mps 737 mmHg 88%
    03:00 +14°C° 0 mm 1 mps 737 mmHg 88%
    04:00 +14°C° 0 mm 1 mps 737 mmHg 88%
    05:00 +15°C° 0 mm 1 mps 737 mmHg 89%
    06:00 +16°C° 0 mm 1 mps 737 mmHg 83%
    07:00 +19°C° 0 mm 1 mps 737 mmHg 78%
    08:00 +20°C° 0 mm 2 mps 737 mmHg 73%
    09:00 +21°C° 0.1 mm 2 mps 737 mmHg 67%
    10:00 +22°C° 0.1 mm 3 mps 737 mmHg 62%
    11:00 +24°C° 0.1 mm 3 mps 737 mmHg 56%
    12:00 +25°C° 0 mm 3 mps 737 mmHg 55%
    13:00 +25°C° 0 mm 4 mps 737 mmHg 54%
    14:00 +26°C° 0 mm 4 mps 737 mmHg 53%
    15:00 +25°C° 0.3 mm 4 mps 736 mmHg 57%
    16:00 +24°C° 0.3 mm 3 mps 736 mmHg 61%
    17:00 +24°C° 0.3 mm 3 mps 736 mmHg 66%
    18:00 +21°C° 0.2 mm 2 mps 736 mmHg 72%
    19:00 +20°C° 0.2 mm 2 mps 736 mmHg 78%
    20:00 +19°C° 0.2 mm 1 mps 736 mmHg 84%
    21:00 +18°C° 0 mm 1 mps 736 mmHg 86%
    22:00 +16°C° 0 mm 1 mps 736 mmHg 88%
    23:00 +16°C° 0 mm 1 mps 736 mmHg 90%

    Tomorrow, 24 May, Friday

    Time Temperature Precipitation Wind Pressure Humidity
    00:00 +16°C° 0.2 mm 1 mps 737 mmHg 91%
    01:00 +15°C° 0.2 mm 1 mps 737 mmHg 92%
    02:00 +15°C° 0.2 mm 1 mps 737 mmHg 93%
    03:00 +15°C° 0.2 mm 1 mps 737 mmHg 94%
    04:00 +15°C° 0.2 mm 1 mps 737 mmHg 95%
    05:00 +15°C° 0.2 mm 1 mps 737 mmHg 95%
    06:00 +16°C° 0 mm 2 mps 738 mmHg 93%
    07:00 +17°C° 0 mm 2 mps 738 mmHg 91%
    08:00 +18°C° 0 mm 2 mps 738 mmHg 88%
    09:00 +18°C° 0.4 mm 3 mps 738 mmHg 86%
    10:00 +19°C° 0.4 mm 3 mps 738 mmHg 84%
    11:00 +19°C° 0.4 mm 4 mps 738 mmHg 82%
    12:00 +20°C° 0.6 mm 4 mps 738 mmHg 82%
    13:00 +20°C° 0.6 mm 4 mps 738 mmHg 81%
    14:00 +20°C° 0.6 mm 4 mps 738 mmHg 81%
    15:00 +19°C° 0.3 mm 4 mps 738 mmHg 83%
    16:00 +19°C° 0.3 mm 3 mps 738 mmHg 85%
    17:00 +18°C° 0.3 mm 3 mps 738 mmHg 88%
    18:00 +18°C° 0.1 mm 3 mps 737 mmHg 90%
    19:00 +17°C° 0.1 mm 3 mps 737 mmHg 92%
    20:00 +17°C° 0.1 mm 3 mps 737 mmHg 93%
    21:00 +16°C° 0 mm 3 mps 737 mmHg 94%
    22:00 +16°C° 0 mm 3 mps 737 mmHg 95%
    23:00 +14°C° 0 mm 3 mps 737 mmHg 96%

    Day after tomorrow, 25 May, Saturday

    Time Temperature Precipitation Wind Pressure Humidity
    00:00 +14°C° 0.7 mm 3 mps 737 mmHg 97%
    01:00 +13°C° 0.7 mm 3 mps 737 mmHg 97%
    02:00 +13°C° 0.7 mm 3 mps 737 mmHg 98%
    03:00 +14°C° 0.5 mm 2 mps 736 mmHg 97%
    04:00 +14°C° 0.5 mm 2 mps 736 mmHg 97%
    05:00 +14°C° 0.5 mm 2 mps 736 mmHg 97%
    06:00 +16°C° 0.2 mm 2 mps 736 mmHg 93%
    07:00 +17°C° 0.2 mm 2 mps 736 mmHg 88%
    08:00 +19°C° 0.2 mm 2 mps 736 mmHg 84%
    09:00 +20°C° 1 mm 2 mps 736 mmHg 80%
    10:00 +21°C° 1 mm 2 mps 736 mmHg 77%
    11:00 +23°C° 1 mm 2 mps 735 mmHg 73%
    12:00 +21°C° 1.1 mm 2 mps 735 mmHg 75%
    13:00 +22°C° 1.1 mm 1 mps 735 mmHg 77%
    14:00 +21°C° 1.1 mm 1 mps 734 mmHg 79%
    15:00 +21°C° 0.7 mm 1 mps 734 mmHg 81%
    16:00 +21°C° 0.7 mm 1 mps 734 mmHg 83%
    17:00 +20°C° 0.7 mm 1 mps 734 mmHg 85%
    18:00 +19°C° 0.3 mm 1 mps 734 mmHg 87%
    19:00 +18°C° 0.3 mm 1 mps 733 mmHg 90%
    20:00 +16°C° 0.3 mm 1 mps 733 mmHg 92%
    21:00 +15°C° 0 mm 2 mps 733 mmHg 93%
    22:00 +15°C° 0 mm 2 mps 733 mmHg 93%
    23:00 +14°C° 0 mm 2 mps 733 mmHg 93%

    26 May, Sunday

    Time Temperature Precipitation Wind Pressure Humidity
    00:00 +12°C° 0 mm 3 mps 733 mmHg 94%
    01:00 +11°C° 0 mm 3 mps 733 mmHg 95%
    02:00 +11°C° 0 mm 3 mps 733 mmHg 96%
    03:00 +10°C° 0 mm 3 mps 734 mmHg 96%
    04:00 +10°C° 0 mm 3 mps 734 mmHg 95%
    05:00 +9°C° 0 mm 3 mps 734 mmHg 95%
    06:00 +10°C° 0 mm 3 mps 734 mmHg 90%
    07:00 +11°C° 0 mm 3 mps 734 mmHg 85%
    08:00 +12°C° 0 mm 3 mps 734 mmHg 80%
    09:00 +13°C° 0 mm 4 mps 734 mmHg 75%
    10:00 +14°C° 0 mm 4 mps 734 mmHg 70%
    11:00 +16°C° 0 mm 5 mps 734 mmHg 65%
    12:00 +16°C° 0 mm 5 mps 734 mmHg 62%
    13:00 +18°C° 0 mm 4 mps 734 mmHg 60%
    14:00 +19°C° 0 mm 4 mps 734 mmHg 58%
    15:00 +18°C° 0.2 mm 4 mps 733 mmHg 62%
    16:00 +18°C° 0.2 mm 4 mps 733 mmHg 66%
    17:00 +17°C° 0.2 mm 4 mps 733 mmHg 70%
    18:00 +15°C° 0.6 mm 4 mps 733 mmHg 78%
    19:00 +13°C° 0.6 mm 3 mps 733 mmHg 86%
    20:00 +12°C° 0.6 mm 3 mps 732 mmHg 93%
    21:00 +11°C° 0.4 mm 4 mps 732 mmHg 94%
    22:00 +10°C° 0.4 mm 4 mps 732 mmHg 94%
    23:00 +8°C° 0.4 mm 5 mps 732 mmHg 94%

    27 May, Monday

    Time Temperature Precipitation Wind Pressure Humidity
    00:00 +7°C° 0.1 mm 4 mps 732 mmHg 94%
    01:00 +7°C° 0.1 mm 4 mps 732 mmHg 93%
    02:00 +7°C° 0.1 mm 4 mps 733 mmHg 93%
    03:00 +6°C° 0.1 mm 4 mps 733 mmHg 93%
    04:00 +6°C° 0.1 mm 5 mps 733 mmHg 93%
    05:00 +6°C° 0.1 mm 5 mps 734 mmHg 94%
    06:00 +6°C° 0 mm 5 mps 734 mmHg 91%
    07:00 +6°C° 0 mm 5 mps 735 mmHg 89%
    08:00 +5°C° 0 mm 6 mps 735 mmHg 87%
    09:00 +8°C° 0 mm 6 mps 736 mmHg 80%
    10:00 +9°C° 0 mm 6 mps 736 mmHg 74%
    11:00 +11°C° 0 mm 7 mps 737 mmHg 68%
    12:00 +11°C° 0 mm 6 mps 737 mmHg 69%
    13:00 +11°C° 0 mm 6 mps 738 mmHg 70%
    14:00 +11°C° 0 mm 6 mps 738 mmHg 71%
    15:00 +13°C° 0 mm 5 mps 739 mmHg 70%
    16:00 +13°C° 0 mm 5 mps 739 mmHg 70%
    17:00 +14°C° 0 mm 4 mps 739 mmHg 70%
    18:00 +13°C° 0 mm 4 mps 739 mmHg 75%
    19:00 +12°C° 0 mm 3 mps 740 mmHg 80%
    20:00 +10°C° 0 mm 3 mps 740 mmHg 85%
    21:00 +10°C° 0 mm 3 mps 740 mmHg 88%
    22:00 +9°C° 0 mm 2 mps 740 mmHg 91%
    23:00 +8°C° 0 mm 2 mps 741 mmHg 94%

    28 May, Tuesday

    Time Temperature Precipitation Wind Pressure Humidity
    00:00 +8°C° 0 mm 2 mps 741 mmHg 94%
    01:00 +8°C° 0 mm 2 mps 741 mmHg 95%
    02:00 +8°C° 0 mm 2 mps 741 mmHg 95%
    03:00 +8°C° 0 mm 2 mps 741 mmHg 94%
    04:00 +8°C° 0 mm 3 mps 741 mmHg 93%
    05:00 +9°C° 0 mm 3 mps 741 mmHg 91%
    06:00 +11°C° 0 mm 3 mps 741 mmHg 85%
    07:00 +13°C° 0 mm 3 mps 741 mmHg 79%
    08:00 +15°C° 0 mm 4 mps 741 mmHg 74%
    09:00 +17°C° 0 mm 4 mps 741 mmHg 69%
    10:00 +19°C° 0 mm 5 mps 741 mmHg 65%
    11:00 +20°C° 0 mm 5 mps 741 mmHg 61%
    12:00 +19°C° 0.1 mm 5 mps 740 mmHg 67%
    13:00 +17°C° 0.1 mm 5 mps 740 mmHg 74%
    14:00 +16°C° 0.1 mm 5 mps 740 mmHg 80%
    15:00 +15°C° 1.3 mm 5 mps 739 mmHg 84%
    16:00 +15°C° 1.3 mm 5 mps 739 mmHg 88%
    17:00 +14°C° 1.3 mm 6 mps 738 mmHg 92%
    18:00 +15°C° 0.3 mm 6 mps 738 mmHg 92%
    19:00 +16°C° 0.3 mm 6 mps 737 mmHg 92%
    20:00 +17°C° 0.3 mm 6 mps 737 mmHg 92%
    21:00 +17°C° 1.4 mm 5 mps 737 mmHg 93%
    22:00 +17°C° 1.4 mm 5 mps 737 mmHg 94%
    23:00 +18°C° 1.4 mm 4 mps 737 mmHg 95%
    Show more